Date String (YYYY-MM-DD hh:mm:ss) UTC,Instrument flags,absolute air pressure of the measurement (hPa),sample flow rate (lpm),inlet stack bypass flow (lpm),air temperature of the measurement (°C),ambient temperature measured by the external sensor (°C),aerosol sample conditioner tube jacket temperature (°C),OPC LED temperature (°C),internal box temperature (°C),relative humidity of the measurement (%),span deviation,mass concentration of particles derived from Lorenz-Mie calculation of OPC scattering (μg/m³),mass concentration of particles derived from Lorenz-Mie calculation of OPC scattering (μg/m³),mass concentration of particles derived from Lorenz-Mie calculation of OPC scattering (μg/m³)
DateTimeUTC,F1_M11,P_M11,Q1_M11,Q2_M11,T1_M11,T2_M11,T3_M11,T4_M11,T5_M11,U1_M11,ZSPAN_M11,X2_M11,X0_M11,X1_M11
2024-05-02 22:00:00,SystemResetWarning,0824.0,5.00,000.00,025.3,024.6,000.0,033.6,027.0,011.4,0000.0,0004.86,0015.90,0003.28
2024-05-02 22:01:00,SystemResetWarning,0824.0,5.00,000.00,025.3,024.6,000.0,033.6,027.0,011.2,0000.0,0004.88,0015.81,0003.31
2024-05-02 22:02:00,SystemResetWarning,0824.0,5.01,000.00,025.3,024.6,000.0,033.7,027.0,010.9,0000.0,0004.88,0015.46,0003.34
2024-05-02 22:03:00,SystemResetWarning,0824.0,5.01,000.00,025.3,024.6,000.0,033.7,027.0,011.4,0000.0,0004.79,0013.47,0003.35
2024-05-02 22:04:00,SystemResetWarning,0824.0,4.99,000.00,025.3,024.6,000.0,033.7,027.0,011.1,0000.0,0004.79,0012.75,0003.38
2024-05-02 22:05:00,SystemResetWarning,0824.1,4.99,000.00,025.4,024.7,000.0,033.7,027.0,010.6,0000.0,0004.84,0012.61,0003.41
2024-05-02 22:06:00,SystemResetWarning,0824.1,5.00,000.00,025.4,024.7,000.0,033.7,027.1,010.2,0000.0,0004.87,0012.25,0003.42
2024-05-02 22:07:00,SystemResetWarning,0824.1,5.01,000.00,025.4,024.7,000.0,033.7,027.1,010.9,0000.0,0004.83,0012.34,0003.42
2024-05-02 22:08:00,SystemResetWarning,0824.1,5.01,000.00,025.4,024.7,000.0,033.7,027.1,010.6,0000.0,0004.85,0013.21,0003.43
2024-05-02 22:09:00,SystemResetWarning,0824.1,5.00,000.00,025.4,024.7,000.0,033.7,027.1,011.0,0000.0,0004.84,0012.26,0003.44
2024-05-02 22:10:00,SystemResetWarning,0824.1,4.99,000.00,025.4,024.7,000.0,033.7,027.1,010.9,0000.0,0004.80,0011.96,0003.43
2024-05-02 22:11:00,SystemResetWarning,0824.2,5.00,000.00,025.4,024.7,000.0,033.7,027.1,011.0,0000.0,0004.78,0012.29,0003.42
2024-05-02 22:12:00,SystemResetWarning,0824.1,5.00,000.00,025.4,024.7,000.0,033.7,027.1,011.0,0000.0,0004.83,0012.71,0003.41
2024-05-02 22:13:00,SystemResetWarning,0824.2,5.00,000.00,025.4,024.7,000.0,033.7,027.1,011.4,0000.0,0004.84,0013.25,0003.39
2024-05-02 22:14:00,SystemResetWarning,0824.2,5.00,000.00,025.4,024.8,000.0,033.7,027.1,011.5,0000.0,0004.82,0014.85,0003.36
2024-05-02 22:15:00,SystemResetWarning,0824.1,5.00,000.00,025.4,024.8,000.0,033.7,027.1,011.6,0000.0,0004.83,0015.59,0003.33
2024-05-02 22:16:00,SystemResetWarning,0824.1,5.00,000.00,025.4,024.8,000.0,033.7,027.2,012.3,0000.0,0004.78,0015.01,0003.29
2024-05-02 22:17:00,SystemResetWarning,0824.1,5.00,000.00,025.4,024.8,000.0,033.7,027.2,012.0,0000.0,0004.72,0015.70,0003.24
2024-05-02 22:18:00,SystemResetWarning,0824.1,5.00,000.00,025.4,024.8,000.0,033.7,027.1,011.5,0000.0,0004.66,0016.41,0003.21
2024-05-02 22:19:00,SystemResetWarning,0824.2,4.99,000.00,025.4,024.8,000.0,033.7,027.2,011.5,0000.0,0004.61,0015.99,0003.18
2024-05-02 22:20:00,SystemResetWarning,0824.3,4.99,000.00,025.4,024.8,000.0,033.7,027.1,011.8,0000.0,0004.58,0015.93,0003.15
2024-05-02 22:21:00,SystemResetWarning,0824.3,5.01,000.00,025.5,024.8,000.0,033.8,027.2,012.0,0000.0,0004.58,0016.22,0003.13
2024-05-02 22:22:00,SystemResetWarning,0824.3,5.00,000.00,025.5,024.8,000.0,033.7,027.1,011.6,0000.0,0004.56,0017.19,0003.12
2024-05-02 22:23:00,SystemResetWarning,0824.2,4.99,000.00,025.5,024.8,000.0,033.8,027.1,011.6,0000.0,0004.50,0017.46,0003.10
2024-05-02 22:24:00,SystemResetWarning,0824.2,5.00,000.00,025.5,024.8,000.0,033.8,027.2,011.2,0000.0,0004.49,0017.96,0003.09
2024-05-02 22:25:00,SystemResetWarning,0824.1,5.00,000.00,025.5,024.8,000.0,033.8,027.2,011.3,0000.0,0004.41,0016.52,0003.10
2024-05-02 22:26:00,SystemResetWarning,0824.1,5.00,000.00,025.5,024.8,000.0,033.8,027.2,011.6,0000.0,0004.34,0015.87,0003.09
2024-05-02 22:27:00,SystemResetWarning,0824.2,5.00,000.00,025.5,024.8,000.0,033.8,027.2,011.0,0000.0,0004.29,0015.70,0003.10
2024-05-02 22:28:00,SystemResetWarning,0824.1,5.00,000.00,025.5,024.8,000.0,033.8,027.2,010.7,0000.0,0004.34,0015.94,0003.12
2024-05-02 22:29:00,SystemResetWarning,0824.1,5.00,000.00,025.5,024.8,000.0,033.8,027.2,011.1,0000.0,0004.38,0016.37,0003.13
2024-05-02 22:30:00,SystemResetWarning,0824.1,5.00,000.00,025.5,024.8,000.0,033.8,027.2,011.0,0000.0,0004.38,0016.93,0003.13
2024-05-02 22:31:00,SystemResetWarning,0824.2,4.99,000.00,025.5,024.8,000.0,033.8,027.2,011.1,0000.0,0004.46,0017.47,0003.14
2024-05-02 22:32:00,SystemResetWarning,0824.2,4.99,000.00,025.5,024.8,000.0,033.8,027.2,010.7,0000.0,0004.51,0017.68,0003.16
2024-05-02 22:33:00,SystemResetWarning,0824.2,5.01,000.00,025.5,024.8,000.0,033.8,027.1,010.7,0000.0,0004.56,0017.66,0003.16
2024-05-02 22:34:00,SystemResetWarning,0824.2,5.01,000.00,025.5,024.8,000.0,033.8,027.1,010.4,0000.0,0004.64,0018.06,0003.18
2024-05-02 22:35:00,SystemResetWarning,0824.1,5.00,000.00,025.5,024.8,000.0,033.8,027.1,010.5,0000.0,0004.68,0017.27,0003.20
2024-05-02 22:36:00,SystemResetWarning,0824.2,5.00,000.00,025.5,024.8,000.0,033.8,027.1,010.7,0000.0,0004.76,0017.32,0003.21
2024-05-02 22:37:00,SystemResetWarning,0824.3,5.00,000.00,025.5,024.8,000.0,033.8,027.1,010.8,0000.0,0004.79,0017.29,0003.22
2024-05-02 22:38:00,SystemResetWarning,0824.3,5.00,000.00,025.5,024.8,000.0,033.8,027.1,011.3,0000.0,0004.82,0017.63,0003.23
2024-05-02 22:39:00,SystemResetWarning,0824.3,5.00,000.00,025.5,024.8,000.0,033.8,027.1,011.0,0000.0,0004.79,0017.29,0003.23
2024-05-02 22:40:00,SystemResetWarning,0824.3,5.00,000.00,025.5,024.8,000.0,033.8,027.1,011.3,0000.0,0004.80,0016.57,0003.23
2024-05-02 22:41:00,SystemResetWarning,0824.4,5.00,000.00,025.5,024.8,000.0,033.8,027.2,011.5,0000.0,0004.86,0015.49,0003.25
2024-05-02 22:42:00,SystemResetWarning,0824.4,5.00,000.00,025.5,024.8,000.0,033.8,027.2,010.7,0000.0,0004.88,0016.99,0003.26
2024-05-02 22:43:00,SystemResetWarning,0824.3,5.00,000.00,025.5,024.8,000.0,033.8,027.2,010.7,0000.0,0004.92,0016.82,0003.28
2024-05-02 22:44:00,SystemResetWarning,0824.4,5.00,000.00,025.5,024.9,000.0,033.8,027.2,011.1,0000.0,0004.92,0017.08,0003.30
2024-05-02 22:45:00,SystemResetWarning,0824.4,4.99,000.00,025.5,024.9,000.0,033.8,027.2,011.6,0000.0,0004.92,0017.61,0003.31
2024-05-02 22:46:00,SystemResetWarning,0824.4,4.99,000.00,025.5,024.9,000.0,033.8,027.2,011.3,0000.0,0004.92,0018.38,0003.31
2024-05-02 22:47:00,SystemResetWarning,0824.4,5.00,000.00,025.5,024.9,000.0,033.8,027.2,011.8,0000.0,0004.89,0019.07,0003.31
2024-05-02 22:48:00,SystemResetWarning,0824.3,5.01,000.00,025.5,024.9,000.0,033.8,027.2,011.5,0000.0,0004.92,0019.92,0003.30
2024-05-02 22:49:00,SystemResetWarning,0824.4,5.00,000.00,025.5,024.9,000.0,033.8,027.2,011.4,0000.0,0004.98,0020.81,0003.30
2024-05-02 22:50:00,SystemResetWarning,0824.4,4.99,000.00,025.5,024.9,000.0,033.8,027.2,011.2,0000.0,0005.22,0026.33,0003.31
2024-05-02 22:51:00,SystemResetWarning,0824.4,5.00,000.00,025.5,024.9,000.0,033.8,027.2,011.3,0000.0,0005.36,0028.93,0003.33
2024-05-02 22:52:00,SystemResetWarning,0824.4,5.01,000.00,025.5,024.9,000.0,033.8,027.2,011.2,0000.0,0005.41,0032.96,0003.33
2024-05-02 22:53:00,SystemResetWarning,0824.4,5.00,000.00,025.5,024.9,000.0,033.8,027.2,011.2,0000.0,0005.40,0033.93,0003.32
2024-05-02 22:54:00,SystemResetWarning,0824.4,4.99,000.00,025.5,024.9,000.0,033.8,027.2,011.4,0000.0,0005.45,0035.15,0003.31
2024-05-02 22:55:00,SystemResetWarning,0824.4,4.99,000.00,025.5,024.9,000.0,033.8,027.2,011.3,0000.0,0005.45,0034.44,0003.29
2024-05-02 22:56:00,SystemResetWarning,0824.4,5.01,000.00,025.5,024.9,000.0,033.8,027.2,011.8,0000.0,0005.39,0032.81,0003.26
2024-05-02 22:57:00,SystemResetWarning,0824.4,5.01,000.00,025.5,024.9,000.0,033.9,027.2,012.1,0000.0,0005.39,0034.14,0003.25
2024-05-02 22:58:00,SystemResetWarning,0824.4,4.99,000.00,025.5,024.9,000.0,033.9,027.3,012.5,0000.0,0005.45,0034.47,0003.25
2024-05-02 22:59:00,SystemResetWarning,0824.4,5.00,000.00,025.6,024.9,000.0,033.9,027.3,012.2,0000.0,0005.45,0034.94,0003.24
